Location: Silent Lake
(44.9206°N, 78.0708°W)
Time: 23:48:12
(UTC-04:00)

OE (NEXTSAT) - Pass Details

Date: 19 April 2018
Orbit: 438 x 447 km, 46.0° (Epoch: 19 September)

Event Time Altitude Azimuth Distance (km) Brightness Sun altitude
Rises 21:50:15 0° 256° (WSW) 2,443 8.7 -17.7°
Reaches altitude 10° 21:52:23 10° 257° (WSW) 1,572 7.7 -18.0°
Maximum altitude 21:55:57 90° 212° (SSW) 452 4.3 -18.4°
Enters shadow 21:56:50 49° 78° (ENE) 587 4.7 -18.6°
